Regional Weather Roundup
Issued by NWS

Home | Current Version | Previous Version | Text Only | Print | Product List | Glossary Off
Versions: 1 2 3 4 5 6 7 8 9 10 11 12 13 14 15 16 17 18 19 20 21 22 23 24 25 26 27 28 29 30 31 32 33 34 35 36 37 38 39 40 41 42 43 44 45 46 47 48 49 50

575
ASUS43 KFSD 260610
RWRSD

WEATHER ROUNDUP FOR SOUTH DAKOTA
NATIONAL WEATHER SERVICE SIOUX FALLS SD
100 AM CDT MON JUN 26 2017

NOTE: "FAIR" INDICATES FEW OR NO CLOUDS BELOW 12,000 FEET WITH NO
SIGNIFICANT WEATHER AND/OR OBSTRUCTIONS TO VISIBILITY.


SDZ001>005-009-010-012>017-260700-
NORTHWEST AND NORTH CENTRAL SOUTH DAKOTA

CITY           SKY/WX    TMP DP  RH WIND       PRES   REMARKS
BUFFALO          N/A     57  40  52 E9        30.19S
FAITH            N/A     53  42  66 E9        30.24S
MOBRIDGE       CLEAR     55  43  63 E10       30.21S
$$

SDZ012>016-024>037-041>051-057-063-072>074-260700-
SOUTHWEST AND SOUTH CENTRAL SOUTH DAKOTA

CITY           SKY/WX    TMP DP  RH WIND       PRES   REMARKS
RAPID CTY ARPT CLEAR     55  37  50 CALM      30.27R
PIERRE         CLEAR     50  44  80 NE7       30.21R
CUSTER         CLEAR     52  31  44 NE12      30.33R
ELLSWORTH AFB  CLEAR     60  38  43 CALM      30.27R
PHILIP         CLEAR     52  42  69 E3        30.22R
PINE RIDGE     PTCLDY    53  44  71 E7        30.22R
SPEARFISH      FAIR      48  37  66 SE6       30.29S
WINNER         FAIR      60  44  55 NE10      30.19R
$$

SDZ004>011-016>023-039-040-260700-
NORTHEAST SOUTH DAKOTA

CITY           SKY/WX    TMP DP  RH WIND       PRES   REMARKS
ABERDEEN       CLEAR     48  45  89 N3        30.23R
WATERTOWN      CLEAR     48  44  86 CALM      30.21R
BROOKINGS      PTCLDY    51  49  92 CALM      30.22S
SISSETON         N/A     51  47  86 NW9       30.20R
$$

SDZ017-020-022-023-036>040-048>070-260700-
SOUTHEAST SOUTH DAKOTA

CITY           SKY/WX    TMP DP  RH WIND       PRES   REMARKS
SIOUX FALLS    RAIN      56  54  93 CALM      30.23R
HURON          MOCLDY    55  51  86 CALM      30.22R
CHAMBERLAIN    CLEAR     60  49  66 NE8       30.20S
MITCHELL       CLOUDY    58  52  80 NE10      30.22R
YANKTON        CLOUDY    58  49  72 NE8       30.19
$$

ABBREVIATIONS USED IN REMARKS
   TC - TEMPERATURE IN CELSIUS
  WCI - WIND CHILL INDEX
   HX - HEAT INDEX
  VSB - VISIBILITY





USA.gov is the U.S. government's official web portal to all federal, state and local government web resources and services.